Погода в Чалне-1

Россия / Республика Карелия     61°54′35″N   34°09′46″E
темп.,
°C
ветер,
м/с
пор.,
м/с
влажн.,
%
обл.,
%
осадки,
мм/ч
давл.,
гПа
погр.,
м
3 марта, ср
ср300:00−6з38910 0.0 1012191
03:00−6з39950 0.0 1012239
06:00−3зсз5119191 0.0 1009559
09:00−4з4129192 0.0 1008516
12:00−1з499295 0.0 1005500
15:00−1з5119098 0.3 1003825
18:00−2з4996100 0.4 999527
21:00−1зсз31094100 2.2 997837
4 марта, чт
чт400:00−3ссз51090100 0.9 997720
03:00−8сз3109485 0.9 999328
06:00−11сз249660 0.0 100088
09:00−11сз249638 0.0 1001124
12:00−6сз249221 0.0 1001338
15:00−4сз248837 0.0 1002679
18:00−7сз129499 0.1 100121
21:00−10сз229596 0.1 100224
5 марта, пт
пт500:00−13зсз229636 0.0 100221
03:00−11зсз279661 0.1 1004194
06:00−11с399399 0.3 1005408
09:00−14ссз379557 0.3 1007251
12:00−10ссз369086 0.0 1009576
15:00−9ссз368182 0.0 1011828
18:00−12зсз118935 0.0 101121
21:00−12з259666 0.1 1013124
6 марта, сб
сб600:00−14з229746 0.0 101322
03:00−16з229738 0.0 101325
06:00−16зюз239756 0.0 101247
09:00−15зюз259631 0.0 1011147
12:00−9юз369210 0.0 1009336
15:00−6ююз488748 0.0 1005809
18:00−7ю31192100 0.1 999690
21:00−6ю51193100 0.6 9931003
7 марта, вс
вс700:00−6ююв51194100 1.0 986776
03:00−4юв4996100 3.2 981468
06:00−3ю1198100 1.9 97953
09:00−8з5995100 3.8 980435
12:00−7св71394100 1.6 983875
15:00−9св71393100 3.0 987923
18:00−10ссв61291100 0.9 9921030
21:00−12ссв71390100 1.4 9971042